Location: ???
(32.3885°N, 98.2106°E)
Time: 10:42:10
(UTC+00:00)

Tiangong - Visible Passes

Search period start: 21 January 2026 00:00
Search period end: 31 January 2026 00:00
Orbit: 378 x 393 km, 41.5° (Epoch: 20 January)

Date Brightness Start Highest point End Pass type
(mag) Time Alt. Az. Time Alt. Az. Time Alt. Az.
21 Jan 1.0 22:22:15 11° NE 22:22:15 11° NE 22:22:25 10° NE visible
21 Jan 0.0 23:55:00 10° NW 23:57:03 16° N 23:59:06 10° NE visible
22 Jan 0.1 22:57:49 17° N 22:57:49 17° N 22:59:28 10° NE visible
23 Jan 0.1 23:33:16 12° NNW 23:34:58 16° N 23:37:02 10° NE visible
24 Jan 0.7 22:36:24 13° NNE 22:36:24 13° NNE 22:37:02 10° NE visible
25 Jan -0.1 23:11:39 16° NNW 23:12:34 18° N 23:14:52 10° NE visible
26 Jan -0.9 23:46:59 10° NW 23:49:54 33° NNE 23:52:49 10° E visible
27 Jan -0.3 22:49:48 23° NNE 22:49:50 23° NNE 22:52:26 10° ENE visible
28 Jan -1.7 23:24:55 20° NW 23:26:53 56° NNE 23:30:00 10° ESE visible
29 Jan 0.0 22:27:50 25° ENE 22:27:50 25° ENE 22:29:38 10° E visible
30 Jan -2.2 23:02:56 54° W 23:03:28 73° SSW 23:06:38 10° SE visible
